TimeEDT,TemperatureF,Dew PointF,Humidity,Sea Level PressureIn,VisibilityMPH,Wind Direction,Wind SpeedMPH,Gust SpeedMPH,PrecipitationIn,Events,Conditions,WindDirDegrees,DateUTC
12:51 AM,62.1,55.9,80,29.93,10.0,WSW,3.5,-,N/A,,Clear,250,2013-10-03 04:51:00
1:51 AM,63.0,53.1,70,29.94,10.0,Variable,3.5,-,N/A,,Clear,0,2013-10-03 05:51:00
2:51 AM,62.1,52.0,70,29.96,10.0,West,4.6,-,N/A,,Clear,260,2013-10-03 06:51:00
3:51 AM,57.0,52.0,83,29.96,10.0,Calm,Calm,-,N/A,,Clear,0,2013-10-03 07:51:00
4:51 AM,59.0,51.1,75,29.97,10.0,Calm,Calm,-,N/A,,Clear,0,2013-10-03 08:51:00
5:51 AM,52.0,48.9,89,30.00,10.0,Calm,Calm,-,N/A,,Clear,0,2013-10-03 09:51:00
6:51 AM,51.1,48.0,89,30.02,8.0,WNW,4.6,-,N/A,,Clear,300,2013-10-03 10:51:00
7:51 AM,55.0,50.0,83,30.04,10.0,NW,4.6,-,N/A,,Clear,320,2013-10-03 11:51:00
8:51 AM,61.0,52.0,72,30.06,10.0,NNW,3.5,-,N/A,,Clear,330,2013-10-03 12:51:00
9:51 AM,66.9,51.1,57,30.06,10.0,West,3.5,-,N/A,,Clear,270,2013-10-03 13:51:00
10:51 AM,71.1,51.1,49,30.06,10.0,West,3.5,-,N/A,,Clear,260,2013-10-03 14:51:00
11:51 AM,73.0,46.9,39,30.04,10.0,Variable,5.8,-,N/A,,Clear,0,2013-10-03 15:51:00
12:51 PM,73.9,46.9,38,30.03,10.0,WNW,8.1,-,N/A,,Clear,290,2013-10-03 16:51:00
1:51 PM,73.0,48.0,41,30.01,10.0,Variable,4.6,-,N/A,,Clear,0,2013-10-03 17:51:00
2:51 PM,72.0,48.0,43,30.00,10.0,West,5.8,-,N/A,,Clear,270,2013-10-03 18:51:00
3:51 PM,73.9,46.9,38,29.99,10.0,Calm,Calm,-,N/A,,Clear,0,2013-10-03 19:51:00
4:51 PM,73.0,48.0,41,29.99,10.0,Variable,3.5,-,N/A,,Clear,0,2013-10-03 20:51:00
5:51 PM,68.0,52.0,56,30.00,10.0,Calm,Calm,-,N/A,,Clear,0,2013-10-03 21:51:00
6:51 PM,64.9,51.1,61,30.01,10.0,Calm,Calm,-,N/A,,Clear,0,2013-10-03 22:51:00
7:51 PM,57.9,52.0,81,30.03,10.0,NW,4.6,-,N/A,,Clear,320,2013-10-03 23:51:00
8:51 PM,57.0,51.1,81,30.03,10.0,WNW,3.5,-,N/A,,Clear,300,2013-10-04 00:51:00
9:51 PM,55.0,51.1,86,30.04,10.0,NW,4.6,-,N/A,,Clear,320,2013-10-04 01:51:00
10:51 PM,55.9,52.0,87,30.05,10.0,NW,3.5,-,N/A,,Clear,320,2013-10-04 02:51:00
11:51 PM,53.1,50.0,89,30.04,10.0,NNW,3.5,-,N/A,,Clear,330,2013-10-04 03:51:00